When you browse on this site, cookies collect data to enhance your experience and personalize the content and advertising you see.
Visit our Privacy Policy to learn more. By continuing to use the site, you agree to this use of cookies and data.
  • In United Kingdom
  • List of Countries
  • For 7 days
  • Water Temperature
  • Satellite Maps
  • Weather Map
  • Weather Widgets
  • user-avatar
    Login

    Hourly Weather Malanville

    Today, 26 May, Sunday

    Time Temperature Precipitation Wind Pressure Humidity
    00:00 +36°C° 0 mm 4 mps 742 mmHg 44%
    01:00 +36°C° 0 mm 4 mps 742 mmHg 47%
    02:00 +35°C° 0 mm 4 mps 742 mmHg 49%
    03:00 +35°C° 0 mm 4 mps 742 mmHg 51%
    04:00 +34°C° 0 mm 4 mps 742 mmHg 53%
    05:00 +34°C° 0 mm 4 mps 742 mmHg 54%
    06:00 +34°C° 0 mm 4 mps 742 mmHg 56%
    07:00 +35°C° 0 mm 4 mps 742 mmHg 51%
    08:00 +37°C° 0 mm 4 mps 743 mmHg 46%
    09:00 +38°C° 0 mm 4 mps 743 mmHg 42%
    10:00 +41°C° 0 mm 4 mps 742 mmHg 38%
    11:00 +42°C° 0 mm 3 mps 742 mmHg 33%
    12:00 +42°C° 0 mm 2 mps 741 mmHg 29%
    13:00 +43°C° 0 mm 2 mps 741 mmHg 26%
    14:00 +44°C° 0 mm 1 mps 740 mmHg 24%
    15:00 +44°C° 0 mm 1 mps 739 mmHg 21%
    16:00 +44°C° 0 mm 1 mps 739 mmHg 22%
    17:00 +43°C° 0 mm 1 mps 739 mmHg 23%
    18:00 +43°C° 0 mm 1 mps 739 mmHg 24%
    19:00 +42°C° 0 mm 1 mps 740 mmHg 26%
    20:00 +41°C° 0 mm 2 mps 740 mmHg 28%
    21:00 +40°C° 0 mm 3 mps 741 mmHg 29%
    22:00 +40°C° 0 mm 3 mps 741 mmHg 31%
    23:00 +40°C° 0 mm 4 mps 740 mmHg 33%

    Tomorrow, 27 May, Monday

    Time Temperature Precipitation Wind Pressure Humidity
    00:00 +38°C° 0 mm 4 mps 740 mmHg 35%
    01:00 +39°C° 0 mm 5 mps 740 mmHg 38%
    02:00 +38°C° 0 mm 6 mps 740 mmHg 40%
    03:00 +36°C° 0 mm 7 mps 740 mmHg 43%
    04:00 +36°C° 0 mm 6 mps 740 mmHg 46%
    05:00 +35°C° 0 mm 6 mps 740 mmHg 50%
    06:00 +34°C° 0 mm 6 mps 741 mmHg 53%
    07:00 +35°C° 0 mm 6 mps 741 mmHg 53%
    08:00 +35°C° 0 mm 7 mps 742 mmHg 52%
    09:00 +35°C° 0 mm 8 mps 742 mmHg 51%
    10:00 +38°C° 0 mm 7 mps 742 mmHg 45%
    11:00 +40°C° 0 mm 7 mps 742 mmHg 39%
    12:00 +41°C° 0 mm 6 mps 741 mmHg 33%
    13:00 +42°C° 0 mm 6 mps 741 mmHg 31%
    14:00 +43°C° 0 mm 5 mps 740 mmHg 29%
    15:00 +44°C° 0 mm 4 mps 739 mmHg 27%
    16:00 +43°C° 0 mm 4 mps 739 mmHg 28%
    17:00 +42°C° 0 mm 4 mps 740 mmHg 29%
    18:00 +42°C° 0 mm 4 mps 740 mmHg 31%
    19:00 +41°C° 0 mm 4 mps 740 mmHg 33%
    20:00 +40°C° 0 mm 4 mps 741 mmHg 35%
    21:00 +38°C° 0 mm 4 mps 741 mmHg 37%
    22:00 +37°C° 0 mm 4 mps 741 mmHg 38%
    23:00 +37°C° 0 mm 4 mps 741 mmHg 40%

    Day after tomorrow, 28 May, Tuesday

    Time Temperature Precipitation Wind Pressure Humidity
    00:00 +36°C° 0 mm 4 mps 741 mmHg 41%
    01:00 +36°C° 0 mm 4 mps 741 mmHg 43%
    02:00 +35°C° 0 mm 4 mps 741 mmHg 45%
    03:00 +35°C° 0 mm 4 mps 740 mmHg 47%
    04:00 +34°C° 0 mm 4 mps 741 mmHg 50%
    05:00 +34°C° 0 mm 4 mps 741 mmHg 52%
    06:00 +34°C° 0 mm 4 mps 741 mmHg 54%
    07:00 +35°C° 0 mm 5 mps 742 mmHg 52%
    08:00 +36°C° 0 mm 5 mps 742 mmHg 49%
    09:00 +37°C° 0 mm 5 mps 743 mmHg 47%
    10:00 +39°C° 0 mm 5 mps 742 mmHg 42%
    11:00 +40°C° 0 mm 5 mps 742 mmHg 38%
    12:00 +42°C° 0 mm 5 mps 742 mmHg 34%
    13:00 +42°C° 0 mm 4 mps 741 mmHg 32%
    14:00 +43°C° 0 mm 4 mps 740 mmHg 30%
    15:00 +43°C° 0 mm 4 mps 739 mmHg 29%
    16:00 +43°C° 0 mm 3 mps 739 mmHg 30%
    17:00 +42°C° 0 mm 3 mps 739 mmHg 30%
    18:00 +41°C° 0 mm 2 mps 740 mmHg 31%
    19:00 +40°C° 0.1 mm 3 mps 740 mmHg 33%
    20:00 +40°C° 0.1 mm 3 mps 741 mmHg 35%
    21:00 +40°C° 0.1 mm 4 mps 741 mmHg 37%
    22:00 +39°C° 0 mm 5 mps 741 mmHg 41%
    23:00 +37°C° 0 mm 5 mps 741 mmHg 45%

    29 May, Wednesday

    Time Temperature Precipitation Wind Pressure Humidity
    00:00 +36°C° 0 mm 6 mps 741 mmHg 49%
    01:00 +36°C° 0 mm 6 mps 741 mmHg 50%
    02:00 +35°C° 0 mm 5 mps 740 mmHg 51%
    03:00 +35°C° 0 mm 5 mps 740 mmHg 52%
    04:00 +35°C° 0 mm 5 mps 741 mmHg 53%
    05:00 +34°C° 0 mm 5 mps 741 mmHg 53%
    06:00 +34°C° 0 mm 5 mps 741 mmHg 54%
    07:00 +35°C° 0 mm 5 mps 742 mmHg 52%
    08:00 +36°C° 0 mm 5 mps 742 mmHg 49%
    09:00 +37°C° 0 mm 5 mps 742 mmHg 47%
    10:00 +39°C° 0 mm 5 mps 742 mmHg 43%
    11:00 +40°C° 0 mm 4 mps 741 mmHg 40%
    12:00 +42°C° 0 mm 4 mps 741 mmHg 36%
    13:00 +42°C° 0 mm 3 mps 740 mmHg 34%
    14:00 +43°C° 0 mm 3 mps 739 mmHg 32%
    15:00 +42°C° 0 mm 2 mps 739 mmHg 29%
    16:00 +42°C° 0 mm 2 mps 739 mmHg 30%
    17:00 +42°C° 0 mm 1 mps 739 mmHg 30%
    18:00 +41°C° 0 mm 1 mps 739 mmHg 30%
    19:00 +41°C° 0.1 mm 1 mps 740 mmHg 32%
    20:00 +40°C° 0.1 mm 1 mps 740 mmHg 34%
    21:00 +39°C° 0.1 mm 1 mps 741 mmHg 35%
    22:00 +38°C° 0.1 mm 2 mps 741 mmHg 40%
    23:00 +37°C° 0.1 mm 3 mps 740 mmHg 44%

    30 May, Thursday

    Time Temperature Precipitation Wind Pressure Humidity
    00:00 +36°C° 0.1 mm 4 mps 740 mmHg 48%
    01:00 +36°C° 0 mm 5 mps 740 mmHg 52%
    02:00 +35°C° 0 mm 6 mps 740 mmHg 57%
    03:00 +34°C° 0 mm 6 mps 740 mmHg 61%
    04:00 +33°C° 0 mm 6 mps 740 mmHg 62%
    05:00 +33°C° 0 mm 6 mps 741 mmHg 64%
    06:00 +33°C° 0 mm 6 mps 741 mmHg 65%
    07:00 +33°C° 0 mm 6 mps 741 mmHg 62%
    08:00 +34°C° 0 mm 6 mps 742 mmHg 58%
    09:00 +35°C° 0 mm 6 mps 742 mmHg 55%
    10:00 +36°C° 0 mm 5 mps 742 mmHg 50%
    11:00 +37°C° 0 mm 5 mps 742 mmHg 46%
    12:00 +40°C° 0 mm 4 mps 742 mmHg 41%
    13:00 +40°C° 0 mm 4 mps 741 mmHg 39%
    14:00 +40°C° 0 mm 3 mps 740 mmHg 37%
    15:00 +40°C° 0 mm 2 mps 740 mmHg 35%
    16:00 +40°C° 0.3 mm 4 mps 740 mmHg 39%
    17:00 +39°C° 0.3 mm 5 mps 740 mmHg 42%
    18:00 +38°C° 0.3 mm 6 mps 741 mmHg 45%
    19:00 +36°C° 2 mm 6 mps 741 mmHg 49%
    20:00 +34°C° 2 mm 5 mps 741 mmHg 53%
    21:00 +33°C° 2 mm 5 mps 742 mmHg 57%
    22:00 +33°C° 0.5 mm 5 mps 742 mmHg 57%
    23:00 +32°C° 0.5 mm 5 mps 741 mmHg 57%

    31 May, Friday

    Time Temperature Precipitation Wind Pressure Humidity
    00:00 +32°C° 0.5 mm 4 mps 741 mmHg 58%
    01:00 +32°C° 0 mm 5 mps 741 mmHg 62%
    02:00 +30°C° 0 mm 5 mps 740 mmHg 66%
    03:00 +30°C° 0 mm 5 mps 740 mmHg 70%
    04:00 +29°C° 0 mm 4 mps 741 mmHg 72%
    05:00 +29°C° 0 mm 4 mps 741 mmHg 74%
    06:00 +29°C° 0 mm 4 mps 742 mmHg 76%
    07:00 +32°C° 0 mm 4 mps 742 mmHg 69%
    08:00 +33°C° 0 mm 4 mps 743 mmHg 63%
    09:00 +34°C° 0 mm 4 mps 743 mmHg 56%
    10:00 +36°C° 0 mm 4 mps 743 mmHg 51%
    11:00 +37°C° 0 mm 3 mps 742 mmHg 46%
    12:00 +39°C° 0 mm 3 mps 742 mmHg 42%
    13:00 +39°C° 0 mm 3 mps 741 mmHg 40%
    14:00 +40°C° 0 mm 3 mps 740 mmHg 39%
    15:00 +40°C° 0 mm 3 mps 740 mmHg 37%
    16:00 +40°C° 0 mm 3 mps 740 mmHg 39%
    17:00 +39°C° 0 mm 3 mps 740 mmHg 41%
    18:00 +38°C° 0 mm 3 mps 740 mmHg 43%
    19:00 +38°C° 0 mm 3 mps 741 mmHg 44%
    20:00 +37°C° 0 mm 3 mps 741 mmHg 46%
    21:00 +37°C° 0 mm 3 mps 742 mmHg 48%
    22:00 +36°C° 0 mm 4 mps 741 mmHg 50%
    23:00 +36°C° 0 mm 4 mps 741 mmHg 53%
    Show more